FENGYUN 3F

Last updated on Sat Feb 08 2025 00:02:20 GMT+0000 (Coordinated Universal Time)

1 57490U 23111A 25038.80199939 .00000177 00000+0 10374-3 0 9991 2 57490 98.7420 111.4581 0001814 112.4587 247.6781 14.19989171 78707
UTC large
Height (km)
Speed (km/s)
/
Latitude / Longitude
Inclination (degrees)
Orbital Period (minutes)
Azimuth
Elevation
Range (km)
Doppler Factor

Next 0 passes for location: London (51.5072 / 0.1276)

Sorry there are no passes over London.